Date,TemperatureHighF,TemperatureAvgF,TemperatureLowF,DewpointHighF,DewpointAvgF,DewpointLowF,HumidityHigh,HumidityAvg,HumidityLow,PressureMaxIn,PressureMinIn,WindSpeedMaxMPH,WindSpeedAvgMPH,GustSpeedMaxMPH,PrecipitationSumIn
2013-4-1,40,32,25,-100,-100,-100,0,0,100,0.00,40.00,0,-999,0,0.00
2013-4-2,49,36,21,-100,-100,-100,0,0,100,0.00,40.00,0,-999,0,0.00
2013-4-3,49,39,29,-100,-100,-100,0,0,100,0.00,40.00,0,-999,0,0.00
2013-4-4,63,47,27,-100,-100,-100,0,0,100,0.00,40.00,0,-999,0,0.00
2013-4-5,65,53,35,-100,-100,-100,0,0,100,0.00,40.00,0,-999,0,0.00
2013-4-6,68,58,51,-100,-100,-100,0,0,100,0.00,40.00,0,-999,0,0.00
2013-4-7,71,56,39,-100,-100,-100,0,0,100,0.00,40.00,0,-999,0,0.00
2013-4-8,65,58,47,-100,-100,-100,0,0,100,0.00,40.00,0,-999,0,0.00
2013-4-9,62,49,34,-100,-100,-100,0,0,100,0.00,40.00,0,-999,0,0.00
2013-4-10,36,36,31,-100,-100,-100,0,0,100,0.00,40.00,0,-999,0,0.00
2013-4-11,43,33,30,-100,-100,-100,0,0,100,0.00,40.00,0,-999,0,0.00
2013-4-12,43,35,30,-100,-100,-100,0,0,100,0.00,40.00,0,-999,0,0.00
2013-4-13,51,36,25,-100,-100,-100,0,0,100,0.00,40.00,0,-999,0,0.00
2013-4-14,64,54,43,-100,-100,-100,0,0,100,0.00,40.00,0,-999,0,0.00
2013-4-15,43,40,35,-100,-100,-100,0,0,100,0.00,40.00,0,-999,0,0.00
2013-4-16,47,40,32,-100,-100,-100,0,0,100,0.00,40.00,0,-999,0,0.00
2013-4-17,44,41,40,-100,-100,-100,0,0,100,0.00,40.00,0,-999,0,0.00
2013-4-18,36,33,32,-100,-100,-100,0,0,100,0.00,40.00,0,-999,0,0.00
2013-4-19,46,34,26,-100,-100,-100,0,0,100,0.00,40.00,0,-999,0,0.00
2013-4-20,45,33,25,-100,-100,-100,0,0,100,0.00,40.00,0,-999,0,0.00
2013-4-21,64,50,41,-100,-100,-100,0,0,100,0.00,40.00,0,-999,0,0.00
2013-4-22,57,47,32,-100,-100,-100,0,0,100,0.00,40.00,0,-999,0,0.00
2013-4-23,40,33,28,-100,-100,-100,0,0,100,0.00,40.00,0,-999,0,0.00
2013-4-24,54,41,25,-100,-100,-100,0,0,100,0.00,40.00,0,-999,0,0.00
2013-4-25,66,52,33,-100,-100,-100,0,0,100,0.00,40.00,0,-999,0,0.00
2013-4-26,61,54,48,-100,-100,-100,0,0,100,0.00,40.00,0,-999,0,0.00
2013-4-27,63,52,48,-100,-100,-100,0,0,100,0.00,40.00,0,-999,0,0.00
2013-4-28,75,57,43,-100,-100,-100,0,0,100,0.00,40.00,0,-999,0,0.00
2013-4-29,78,66,54,-100,-100,-100,0,0,100,0.00,40.00,0,-999,0,0.00
2013-4-30,80,71,61,-100,-100,-100,0,0,100,0.00,40.00,0,-999,0,0.00